Location: Newark
(11.2914°S, 14.4718°E)
Time: 09:12:06
(UTC+00:00)

Tiros 1 despin weight - Pass Details

Date: 24 September 2019
Orbit: 593 x 643 km, 48.2° (Epoch: 19 October)

Event Time Altitude Azimuth Distance (km) Brightness Sun altitude
Rises 04:47:24 0° 197° (SSW) 2,950 ? -1.6°
Reaches altitude 10° 04:50:30 10° 176° (S) 2,039 ? -0.9°
Maximum altitude 04:53:33 17° 135° (SE) 1,623 ? -0.1°
Drops below altitude 10° 04:56:35 10° 95° (E) 2,031 ? 0.6°
Sets 04:59:38 0° 74° (ENE) 2,932 ? 1.4°
